Regional Weather Roundup
Issued by NWS Northern Indiana

Home | Current Version | Previous Version | Graphics & Text | Print | Product List | Glossary On
Versions: 1 2 3 4 5 6 7 8 9 10 11 12 13 14 15 16 17 18 19 20 21 22 23 24 25 26 27 28 29 30 31 32 33 34 35 36 37 38 39 40 41 42 43 44 45 46 47 48 49 50
000
ASUS43 KIWX 220410
RWRIWX

KIWX WEATHER ROUNDUP
NATIONAL WEATHER SERVICE NORTHERN INDIANA
1100 PM EST TUE FEB 21 2017

NOTE: "FAIR" INDICATES FEW OR NO CLOUDS BELOW 12,000 FEET WITH NO
SIGNIFICANT WEATHER AND/OR OBSTRUCTIONS TO VISIBILITY.

* THESE STATIONS ARE NOT UNDER NWS QUALITY CONTROL. THEY ALSO MAY NOT
  REPORT WEATHER SUCH AS PRECIPITATION OR FOG.

INZ001>027-220500-
NORTHERN INDIANA

CITY           SKY/WX    TMP DP  RH WIND       PRES   REMARKS
GARY*          MOCLDY    57  53  85 S3        29.88F
VALPARAISO     PTCLDY    55  52  89 S6        29.89F
MICHIGAN CITY* PTCLDY    52  52 100 S3        29.89F
LAPORTE*       MOCLDY    48  48  99 S3        29.91F FOG
KNOX*          PTCLDY    50  36  57 S3        29.91S
SOUTH BEND     PTCLDY    46  45  96 S3        29.91F FOG
GOSHEN         CLOUDY    51  47  86 CALM      29.91F
MONTICELLO*    MOCLDY    54  50  87 CALM      29.92S
LOGANSPORT*    CLOUDY    50  46  87 SE3       29.93S
ROCHESTER*     PTCLDY    54  50  87 S3        29.92S
WARSAW*        MOCLDY    50  46  87 CALM      29.92S
ANGOLA*        MOCLDY    48  46  93 CALM      29.92F
FORT WAYNE     CLOUDY    49  45  86 S5        29.93F
HUNTINGTON*    CLOUDY    51  49  90 S3        29.92F
PERU/GRISSOM   CLOUDY    52  52 100 S6        29.91F
MARION*        CLOUDY    54  50  88 SW5       29.94F

$$
INZ028>050-220500-
CENTRAL INDIANA

CITY           SKY/WX    TMP DP  RH WIND       PRES   REMARKS
LAFAYETTE      CLOUDY    54  51  90 CALM      29.92F
KOKOMO*        CLOUDY    51  48  89 S7        29.94F
MUNCIE*        MOCLDY    56  51  84 S3        29.94F
INDIANAPOLIS   CLOUDY    56  53  90 S6        29.94F

$$
MIZ043>046-050>051-056>058-064>065-071>073-077>080-220500-
SOUTHWEST LOWER MICHIGAN

CITY           SKY/WX    TMP DP  RH WIND       PRES   REMARKS
BATTLE CREEK   CLOUDY    49  48  97 CALM      29.91F FOG
BENTON HARBOR  FOG       50  47  89 CALM      29.88F VSB 1
COLDWATER*     CLOUDY    47  47 100 SE5       29.92S FOG
HILLSDALE*     MOCLDY    45  45 100 CALM      29.92S FOG
HOLLAND        FOG       51  50  96 S5        29.90S VSB 1/4
GRAND RAPIDS   FOG       51  50  96 S7        29.90S VSB 1/4
KALAMAZOO      CLOUDY    50  47  89 W3        29.92S FOG
STURGIS*       CLOUDY    50  49  97 SE7       29.91F
THREE RIVERS*  FAIR      46  46 100 S3        29.92F FOG

$$
OHZ001>008-015>018-024>025-220500-
NORTHWEST OHIO

CITY           SKY/WX    TMP DP  RH WIND       PRES   REMARKS
WAUSEON*       MOCLDY    52  50  93 CALM      29.92F
DEFIANCE       CLOUDY    49  48  97 S5        29.93F FOG
FINDLAY        PTCLDY    53  46  77 S6        29.93F
TOLEDO EXPRESS CLOUDY    49  49 100 CALM      29.93S
TOLEDO METCALF CLOUDY    49  48  97 CALM      29.94S FOG
LIMA           CLOUDY    55  49  80 S7        29.94F

$$
AND FOR LAKE MICHIGAN COASTAL AND OPEN LAKE BUOY OBSERVATIONS

STATION/POSITION TEMP    WIND        PRES    VSBY  WAVE
                 AIR SEA DIR/SP/G                  HT/PER
                 (F)     (DEG/KT/KT) (MB)    (MI)  (FT/S)
CALUMET HARBOR    56     180/  3/  4 1011.0F
MICHIGAN CITY     57     140/  8/ 12   N/A
BURNS HARBOR      57     180/  7/ 11 1012.5F

$$
&&




USA.gov is the U.S. government's official web portal to all federal, state and local government web resources and services.